Location: Newark
(52.4787°S, 179.0532°W)
Time: 21:44:03
(UTC+00:00)

ISS - Pass Details

Date: 21 October 2019
Orbit: 412 x 421 km, 51.6° (Epoch: 22 November)

Event Time Altitude Azimuth Distance (km) Brightness Sun altitude
Rises 07:50:04 0° 317° (NW) 2,362 0.2 -10.0°
Reaches altitude 10° 07:52:18 10° 328° (NNW) 1,505 -0.9 -10.3°
Maximum altitude 07:55:16 28° 29° (NNE) 821 -2.8 -10.6°
Enters shadow 07:57:32 15° 83° (E) 1,270 -1.9 -10.9°
